Waarnemingen

Advertentie
Mijn weer
Ahaus, Duitsland (10309): temperatuur & dauwpunt: 23.03.2017 20:00:00 - 29.03.2017 20:00:00 (CEST)Ahaus, Duitsland (10309): temperatuur 5cm & temperatuur -5cm: 23.03.2017 20:00:00 - 29.03.2017 20:00:00 (CEST)Ahaus, Duitsland (10309): temperatuur -20cm & temperatuur -100cm: 23.03.2017 20:00:00 - 29.03.2017 20:00:00 (CEST)Ahaus, Duitsland (10309): windsnelheid & windstoten: 23.03.2017 20:00:00 - 29.03.2017 20:00:00 (CEST)Ahaus, Duitsland (10309): windrichting: 23.03.2017 20:00:00 - 29.03.2017 20:00:00 (CEST)Ahaus, Duitsland (10309): luchtdruk: 23.03.2017 20:00:00 - 29.03.2017 20:00:00 (CEST)Ahaus, Duitsland (10309): zicht: 23.03.2017 20:00:00 - 29.03.2017 20:00:00 (CEST)Ahaus, Duitsland (10309): Zonneschijnduur: 23.03.2017 20:00:00 - 29.03.2017 20:00:00 (CEST)Ahaus, Duitsland (10309): neerslag: 23.03.2017 20:00:00 - 29.03.2017 20:00:00 (CEST)
Datum & Tijd tt [°C] td [°C] tt 5cm [°C] tt -5cm [°C] tt -20cm [°C] tt -100cm [°C] ff [km/u] ff [kn] fx [km/u] fx [kn] dd ppp [hPa] vv [km] sd [min] rr [mm]
29.03.2017 20:00:00 13,5 9,5 12,5 11,8 10,9 8,4 11 6 24 13 WZW 1024,0 23 0 0,0
29.03.2017 19:00:00 13,9 9,8 13,3 12,6 10,8 8,4 11 6 26 14 WZW 1023,5 18 0 0,0
29.03.2017 18:00:00 13,8 9,5 13,6 12,8 10,7 8,4 14 8 26 14 WZW 1023,4 14 0 0,0
29.03.2017 17:00:00 13,7 9,9 14,3 13,2 10,6 8,3 16 8 34 18 ZW 1023,6 12 0 0,0
29.03.2017 16:00:00 13,4 9,0 13,7 12,9 10,5 8,3 23 13 38 20 WZW 1023,8 14 0 0,0
29.03.2017 15:00:00 13,4 8,7 13,6 12,8 10,4 8,3 22 12 40 22 W 1023,7 19 0 0,0
29.03.2017 14:00:00 13,4 8,8 13,3 13,1 10,1 8,3 19 10 35 19 WZW 1023,8 15 1 0,0
29.03.2017 13:00:00 13,5 9,0 15,1 13,8 9,9 8,3 19 10 38 21 WZW 1023,5 16 1 0,0
29.03.2017 12:00:00 13,1 8,8 13,5 12,6 9,7 8,3 19 10 41 22 ZW 1023,8 14 0 0,0
29.03.2017 11:00:00 12,2 8,5 12,3 11,1 9,5 8,3 21 11 31 17 ZW 1023,2 16 0 0,0
29.03.2017 10:00:00 11,7 8,3 11,8 10,4 9,5 8,3 18 10 32 17 ZW 1023,0 14 0 0,0
29.03.2017 09:00:00 10,7 8,2 10,4 9,4 9,5 8,3 16 8 24 13 ZW 1022,9 12 0 0,0
29.03.2017 08:00:00 10,2 8,0 9,7 9,0 9,5 8,3 12 7 22 12 ZW 1022,8 11 0 0,0
29.03.2017 07:00:00 10,0 7,8 9,4 8,7 9,6 8,2 12 6 26 14 ZW 1022,5 11 0 0,0
29.03.2017 06:00:00 9,9 7,5 9,1 8,6 9,8 8,2 14 8 23 12 ZW 1022,3 12 0 0,0
29.03.2017 05:00:00 9,6 7,3 8,3 8,3 10,0 8,2 11 6 24 13 ZW 1022,5 10 0 0,0
29.03.2017 04:00:00 9,9 7,3 8,5 8,6 10,2 8,2 13 7 22 12 ZW 1022,4 10 0 0,0
29.03.2017 03:00:00 10,7 7,5 8,9 8,9 10,4 8,2 13 7 25 14 WZW 1022,6 12 0 0,0
29.03.2017 02:00:00 11,2 8,1 9,7 9,4 10,6 8,2 16 9 26 14 ZW 1022,6 9 0 0,0
29.03.2017 01:00:00 11,7 8,1 10,4 9,7 10,8 8,2 12 7 22 12 WZW 1022,5 13 0 0,0
29.03.2017 00:00:00 11,9 8,4 9,2 10,4 11,0 8,2 9 5 29 16 W 1022,4 12 0 0,1
28.03.2017 23:00:00 13,2 8,1 11,1 10,6 11,3 8,2 24 13 40 21 W 1022,2 7 0 0,0
28.03.2017 22:00:00 10,4 6,4 5,7 10,5 11,6 8,2 5 3 7 4 ZZW 1021,1 7 0 0,0
28.03.2017 21:00:00 12,3 5,4 6,2 11,6 11,9 8,2 5 3 8 5 ZZW 1020,9 9 0 0,0
28.03.2017 20:00:00 15,7 4,6 10,4 13,4 12,0 8,2 6 3 16 9 ZW 1020,5 10 2 0,0
28.03.2017 19:00:00 17,8 3,8 16,6 15,2 12,0 8,2 9 5 23 13 W 1020,4 11 57 0,0
28.03.2017 18:00:00 18,4 2,3 18,4 16,9 11,8 8,2 16 9 32 18 W 1020,5 15 60 0,0
28.03.2017 17:00:00 18,7 2,7 20,0 18,5 11,3 8,2 16 8 31 17 WZW 1020,4 15 60 0,0
28.03.2017 16:00:00 18,9 4,1 21,1 19,6 10,7 8,2 14 8 26 14 ZW 1020,4 15 60 0,0
28.03.2017 15:00:00 18,8 4,3 21,8 20,3 10,0 8,2 13 7 23 12 ZW 1020,6 19 60 0,0
28.03.2017 14:00:00 17,8 2,1 21,8 20,0 9,2 8,2 9 5 19 10 W 1020,9 16 60 0,0
28.03.2017 13:00:00 17,0 3,2 20,4 18,2 8,4 8,1 10 5 19 10 WZW 1021,2 17 60 0,0
28.03.2017 12:00:00 15,5 3,1 18,3 15,8 7,8 8,1 11 6 17 9 WZW 1021,3 21 60 0,0
28.03.2017 11:00:00 13,4 3,1 15,6 12,7 7,4 8,1 11 6 16 9 ZZW 1021,2 19 60 0,0
28.03.2017 10:00:00 11,1 2,6 12,2 9,7 7,2 8,1 11 6 17 9 ZZW 1021,0 18 60 0,0
28.03.2017 09:00:00 8,8 2,1 8,0 6,7 7,3 8,1 8 4 13 7 ZZW 1020,8 47 60 0,0
28.03.2017 08:00:00 4,9 -0,3 0,0 3,9 7,5 8,1 7 4 10 5 Z 1020,5 23 8 0,0
28.03.2017 07:00:00 4,3 -0,2 -0,7 3,9 7,8 8,1 6 3 9 5 ZZO 1020,5 24 0 0,0
28.03.2017 06:00:00 2,0 0,6 -1,5 4,2 8,1 8,1 7 4 10 5 ZZO 1020,5 14 0 0,0
28.03.2017 05:00:00 2,9 1,0 -0,3 4,6 8,4 8,1 4 2 8 5 Z 1020,7 14 0 0,0
28.03.2017 04:00:00 3,3 1,5 -1,2 4,9 8,7 8,1 4 2 6 4 O 1021,0 15 0 0,0
28.03.2017 03:00:00 3,2 1,7 -0,8 5,3 9,1 8,1 5 3 6 3 OZO 1021,7 12 0 0,0
28.03.2017 02:00:00 4,6 2,2 0,0 5,8 9,4 8,1 3 2 6 3 OZO 1021,9 16 0 0,0
28.03.2017 01:00:00 3,9 2,5 0,1 6,5 9,8 8,1 3 2 6 4 OZO 1021,9 14 0 0,0
28.03.2017 00:00:00 5,2 2,9 0,4 7,2 10,2 8,1 4 2 6 3 OZO 1022,1 16 0 0,0
27.03.2017 23:00:00 7,8 2,3 2,1 8,0 10,6 8,1 4 2 6 3 O 1022,2 23 0 0,0
27.03.2017 22:00:00 7,7 2,3 2,3 9,1 11,0 8,1 3 2 16 9 OZO 1022,1 24 0 0,0
27.03.2017 21:00:00 11,7 1,7 4,1 10,3 11,3 8,1 8 4 11 6 O 1021,7 32 0 0,0
27.03.2017 20:00:00 14,6 0,6 7,4 12,3 11,5 8,1 5 3 19 11 O 1021,5 43 34 0,0
27.03.2017 19:00:00 16,5 0,3 16,6 14,4 11,4 8,1 11 6 20 11 O 1021,5 43 60 0,0
27.03.2017 18:00:00 17,0 1,3 18,5 16,2 11,2 8,1 10 5 22 12 O 1022,1 54 60 0,0
27.03.2017 17:00:00 17,2 1,4 21,0 17,6 10,7 8,0 10 6 19 10 O 1022,6 42 60 0,0
27.03.2017 16:00:00 17,0 2,5 20,4 18,5 10,1 8,0 11 6 19 11 OZO 1023,1 28 60 0,0
27.03.2017 15:00:00 16,2 1,5 19,6 18,7 9,4 8,0 11 6 23 12 ZO 1023,8 34 60 0,0
27.03.2017 14:00:00 15,9 0,3 20,0 17,9 8,7 8,0 13 7 26 14 OZO 1024,5 29 60 0,0
27.03.2017 13:00:00 15,3 1,5 18,6 16,6 8,0 8,0 18 10 25 14 OZO 1025,1 18 60 0,0
27.03.2017 12:00:00 14,5 1,2 17,9 14,9 7,3 8,0 11 6 18 10 OZO 1025,4 32 60 0,0
27.03.2017 11:00:00 12,5 2,8 15,0 12,2 6,9 8,0 9 5 14 7 OZO 1025,5 28 60 0,0
27.03.2017 10:00:00 9,9 3,1 11,2 9,2 6,7 8,0 8 4 11 6 OZO 1025,7 26 60 0,0
27.03.2017 09:00:00 5,9 3,0 5,6 5,9 6,8 8,0 5 3 7 4 OZO 1025,6 7 60 0,0
27.03.2017 08:00:00 1,4 1,2 -1,8 3,1 7,1 8,0 4 2 6 3 ONO 1025,5 3,3 6 0,0
27.03.2017 07:00:00 1,3 1,0 -2,5 3,3 7,3 8,0 4 2 8 5 ONO 1025,1 4,9 0 0,0
27.03.2017 06:00:00 2,4 1,4 -1,6 3,7 7,6 8,0 7 4 10 5 ONO 1024,8 5 0 0,0
27.03.2017 05:00:00 2,8 1,7 -1,7 4,1 7,9 8,0 6 3 10 5 ONO 1024,7 6 0 0,0
27.03.2017 04:00:00 3,5 2,3 -0,2 4,5 8,2 8,0 9 5 11 6 ONO 1025,2 6 0 0,0
27.03.2017 03:00:00 4,6 3,1 -0,4 5,0 8,6 8,0 6 3 9 5 O 1025,2 8 0 0,0
27.03.2017 02:00:00 5,5 3,7 0,0 5,6 8,9 8,0 4 2 10 6 NO 1025,5 8 0 0,0
27.03.2017 01:00:00 5,6 3,5 1,2 6,3 9,2 8,0 7 4 11 6 NO 1025,5 9 0 0,0
27.03.2017 00:00:00 6,1 4,0 1,9 6,9 9,6 8,0 8 4 14 7 ONO 1025,5 8 0 0,0
26.03.2017 23:00:00 7,3 4,3 4,1 7,6 9,9 8,0 9 5 16 8 ONO 1025,7 9 0 0,0
26.03.2017 22:00:00 8,4 4,5 4,9 8,4 10,2 8,0 7 4 19 10 NO 1025,7 11 0 0,0
26.03.2017 21:00:00 9,5 4,6 7,2 9,4 10,5 8,0 13 7 21 11 ONO 1025,1 13 0 0,0
26.03.2017 20:00:00 10,9 4,0 8,9 10,8 10,7 8,0 13 7 21 11 NO 1024,7 18 26 0,0
26.03.2017 19:00:00 12,2 3,9 12,3 12,5 10,8 8,0 14 8 27 14 NO 1024,8 19 60 0,0
26.03.2017 18:00:00 12,9 4,6 15,0 14,2 10,6 8,0 15 8 23 12 NNO 1024,7 15 60 0,0
26.03.2017 17:00:00 13,1 4,9 16,7 15,7 10,3 8,0 16 9 27 15 NNO 1024,7 15 60 0,0
26.03.2017 16:00:00 13,2 4,9 17,4 16,6 9,8 8,0 16 8 30 16 ONO 1025,2 20 60 0,0
26.03.2017 15:00:00 12,7 5,2 18,3 17,2 9,2 8,0 14 8 25 13 NNO 1025,5 17 60 0,0
26.03.2017 14:00:00 11,4 3,3 16,3 16,7 8,5 7,9 11 6 22 12 ONO 1025,9 23 60 0,0
26.03.2017 13:00:00 10,7 4,4 15,4 15,4 7,9 7,9 10 5 21 11 O 1026,3 19 60 0,0
26.03.2017 12:00:00 9,3 5,2 14,5 13,4 7,4 7,9 10 6 17 9 ONO 1026,7 10 60 0,0
26.03.2017 11:00:00 7,7 5,0 12,3 9,8 7,1 7,9 10 5 16 9 NO 1026,8 9 10 0,0
26.03.2017 10:00:00 6,2 4,2 7,5 7,3 7,1 7,9 9 5 20 11 O 1026,7 8 0 0,0
26.03.2017 09:00:00 5,6 4,1 6,0 6,2 7,1 7,9 11 6 23 13 O 1026,5 7 0 0,0
26.03.2017 08:00:00 5,2 3,5 4,9 5,7 7,2 7,9 13 7 24 13 ONO 1026,2 6 0 0,0
26.03.2017 07:00:00 5,3 3,7 5,1 5,8 7,2 7,9 17 9 27 15 ONO 1026,2 9 0 0,0
26.03.2017 06:00:00 5,2 4,3 5,1 5,8 7,3 7,9 13 7 24 13 O 1025,9 6 0 0,0
26.03.2017 05:00:00 4,8 3,8 4,7 5,4 7,5 7,9 10 5 29 16 NO 1025,9 8 0 0,0
26.03.2017 04:00:00 4,6 2,9 3,0 5,0 7,7 7,9 10 6 24 13 NO 1026,3 14 0 0,0
26.03.2017 03:00:00 5,2 3,1 3,0 5,3 7,9 7,9 11 6 21 12 NNO 1026,4 19 0 0,0
26.03.2017 02:00:00 5,7 3,1 3,3 5,6 8,2 7,9 10 5 18 10 NNO 1026,7 27 0 0,0
26.03.2017 01:00:00 6,3 3,4 3,2 6,0 8,4 7,9 6 4 24 13 NO 1027,0 31 0 0,0
26.03.2017 00:00:00 7,4 3,8 5,5 6,5 8,7 7,9 15 8 30 16 NO 1027,3 36 0 0,0
25.03.2017 23:00:00 8,2 2,0 5,9 6,8 9,0 7,9 16 8 26 14 NNO 1027,4 33 0 0,0
25.03.2017 22:00:00 9,0 0,7 6,4 7,3 9,2 7,9 14 8 21 12 NNO 1027,2 34 0 0,0
25.03.2017 21:00:00 9,9 -0,5 6,4 8,1 9,5 7,9 11 6 20 11 NNO 1027,0 41 0 0,0
25.03.2017 20:00:00 11,0 -0,9 8,3 9,3 9,7 7,9 13 7 24 13 NO 1026,9 46 27 0,0
25.03.2017 19:00:00 12,4 -1,1 11,8 11,0 9,7 7,9 12 6 26 14 NO 1026,7 37 60 0,0
25.03.2017 18:00:00 13,2 -1,8 14,9 12,5 9,5 7,9 16 9 33 18 NO 1027,1 34 60 0,0
25.03.2017 17:00:00 13,6 -2,3 16,5 13,6 9,2 7,9 16 8 32 17 ONO 1028,1 21 60 0,0
25.03.2017 16:00:00 13,6 -3,3 17,0 14,4 8,7 7,9 19 11 31 17 NO 1028,8 18 60 0,0
25.03.2017 15:00:00 13,3 -3,8 17,0 14,7 8,2 7,9 19 10 33 18 NO 1029,8 30 60 0,0
25.03.2017 14:00:00 12,5 -4,8 16,7 14,2 7,6 7,9 20 11 30 16 NO 1030,5 20 60 0,0
25.03.2017 13:00:00 11,5 -1,0 13,9 13,1 7,1 7,9 16 8 25 14 NO 1031,4 26 60 0,0
25.03.2017 12:00:00 10,8 1,1 12,7 12,2 6,6 7,9 16 8 24 13 NO 1032,1 21 60 0,0
25.03.2017 11:00:00 9,3 0,6 11,2 9,8 6,3 7,9 13 7 21 12 ONO 1032,4 19 60 0,0
25.03.2017 10:00:00 6,8 1,3 8,6 7,3 6,1 7,9 10 6 16 8 ONO 1032,5 19 60 0,0
25.03.2017 09:00:00 4,1 0,8 3,7 4,3 6,3 7,9 7 4 13 7 NO 1032,3 12 42 0,0
25.03.2017 08:00:00 2,4 0,2 -0,7 2,7 6,5 7,9 7 4 14 8 NO 1032,4 12 0 0,0
25.03.2017 07:00:00 1,9 0,2 -2,8 2,9 6,8 7,8 7 4 11 6 NNO 1032,3 12 0 0,0
25.03.2017 06:00:00 2,9 0,4 -1,2 3,3 7,1 7,8 6 4 12 7 NO 1032,3 14 0 0,0
25.03.2017 05:00:00 3,3 0,7 -1,1 3,7 7,3 7,8 7 4 13 7 NO 1032,4 15 0 0,0
25.03.2017 04:00:00 4,4 1,4 1,3 4,2 7,6 7,8 9 5 16 8 NO 1032,8 14 0 0,0
25.03.2017 03:00:00 5,0 1,7 2,2 4,6 7,9 7,8 10 5 18 10 NO 1033,3 15 0 0,0
25.03.2017 02:00:00 5,5 1,7 3,2 5,0 8,2 7,8 11 6 17 9 NNO 1033,3 19 0 0,0
25.03.2017 01:00:00 6,2 1,2 2,9 5,3 8,5 7,8 10 5 18 10 NNO 1033,1 25 0 0,0
25.03.2017 00:00:00 7,0 1,1 3,3 5,8 8,8 7,8 11 6 18 10 NNO 1032,8 27 0 0,0
24.03.2017 23:00:00 8,0 1,5 4,5 6,4 9,2 7,8 11 6 18 10 NO 1032,6 25 0 0,0
24.03.2017 22:00:00 8,4 1,8 4,5 7,1 9,5 7,8 10 5 19 10 NO 1032,1 27 0 0,0
24.03.2017 21:00:00 9,5 1,7 6,3 8,0 9,9 7,8 13 7 20 11 NO 1031,7 32 0 0,0
24.03.2017 20:00:00 10,8 2,2 7,9 9,2 10,1 7,8 13 7 34 18 NO 1031,1 28 29 0,0
24.03.2017 19:00:00 11,7 2,8 11,4 10,8 10,3 7,8 17 9 37 20 ONO 1030,4 34 59 0,0
24.03.2017 18:00:00 12,7 3,0 14,1 12,4 10,2 7,8 20 11 33 18 NO 1030,3 22 60 0,0
24.03.2017 17:00:00 13,2 3,1 15,0 13,8 9,9 7,8 20 11 34 18 ONO 1029,9 19 60 0,0
24.03.2017 16:00:00 12,4 2,9 15,1 14,7 9,5 7,8 19 10 34 19 ONO 1030,1 18 60 0,0
24.03.2017 15:00:00 11,9 3,7 15,0 15,3 9,0 7,8 19 10 32 17 ONO 1030,2 17 60 0,0
24.03.2017 14:00:00 11,7 4,5 14,9 15,3 8,4 7,8 17 9 34 18 ONO 1030,9 13 60 0,0
24.03.2017 13:00:00 10,7 3,5 14,1 14,5 7,9 7,8 17 9 37 20 ONO 1031,3 18 60 0,0
24.03.2017 12:00:00 9,6 2,7 11,8 12,7 7,4 7,8 19 10 42 23 O 1030,7 10 60 0,0
24.03.2017 11:00:00 8,1 2,6 10,0 10,7 7,2 7,8 20 11 40 22 O 1029,9 14 60 0,0
24.03.2017 10:00:00 7,0 3,5 8,1 8,5 7,1 7,8 23 13 36 20 ONO 1028,3 11 60 0,0
24.03.2017 09:00:00 6,3 3,0 6,6 6,6 7,2 7,8 21 11 33 18 ONO 1028,4 13 34 0,0
24.03.2017 08:00:00 6,4 3,0 6,1 5,9 7,3 7,8 21 11 34 19 ONO 1027,9 11 0 0,0
24.03.2017 07:00:00 6,8 3,3 6,4 6,2 7,3 7,8 16 8 26 14 ONO 1027,2 8 0 0,0
24.03.2017 06:00:00 7,1 3,5 6,7 6,2 7,4 7,8 12 7 30 16 ONO 1027,1 8 0 0,0
24.03.2017 05:00:00 7,2 3,8 6,7 6,2 7,5 7,8 14 8 34 18 ONO 1026,4 7 0 0,0
24.03.2017 04:00:00 7,1 4,0 6,2 6,3 7,6 7,8 20 11 29 16 ONO 1025,4 6 0 0,0
24.03.2017 03:00:00 7,3 4,3 6,8 6,3 7,7 7,8 16 9 27 15 ONO 1025,6 6 0 0,0
24.03.2017 02:00:00 7,0 4,4 6,1 6,2 7,9 7,8 16 8 26 14 NO 1024,6 6 0 0,0
24.03.2017 01:00:00 6,7 4,7 6,3 6,2 8,1 7,8 17 9 27 15 ONO 1023,8 4,7 0 0,0
24.03.2017 00:00:00 6,3 4,3 4,9 5,7 8,4 7,8 15 8 31 17 ONO 1023,2 5 0 0,0
23.03.2017 23:00:00 6,9 4,2 5,4 6,2 8,8 7,8 19 10 31 17 NO 1022,6 7 0 0,0
23.03.2017 22:00:00 7,4 4,3 5,7 6,7 9,2 7,8 19 10 31 17 NO 1021,8 8 0 0,0
23.03.2017 21:00:00 8,3 4,4 6,5 7,6 9,5 7,8 20 11 36 20 NO 1021,0 10 0 0,0
23.03.2017 20:00:00 - - - - - - - - - - - - - - -

tt = temperatuur
td = dauwpunt
tt 5cm = temperatuur 5cm
tt -5cm = temperatuur -5cm
tt -20cm = temperatuur -20cm
tt -100cm = temperatuur -100cm
ff = windsnelheid
fx = windstoten
dd = windrichting
ppp = luchtdruk
vv = zicht
sd = Zonneschijnduur
rr = neerslag

Weerstations in de omgeving